Time,TemperatureF,DewpointF,PressureIn,WindDirection,WindDirectionDegrees,WindSpeedMPH,WindSpeedGustMPH,Humidity,HourlyPrecipIn,Conditions,Clouds,dailyrainin,SoftwareType,DateUTC
2013-02-14 00:02:00,27.0,21.6,30.71,South,175,2.0,4.0,80,0.00,,,0.00,meteohub,2013-02-14 08:02:00,
2013-02-14 00:07:00,26.8,21.4,30.71,SSE,168,3.0,3.0,80,0.00,,,0.00,meteohub,2013-02-14 08:07:00,
2013-02-14 00:12:00,26.4,21.4,30.71,SSE,155,3.0,3.0,81,0.00,,,0.00,meteohub,2013-02-14 08:12:00,
2013-02-14 00:17:00,26.4,21.4,30.70,SSE,163,3.0,3.0,81,0.00,,,0.00,meteohub,2013-02-14 08:17:00,
2013-02-14 00:22:00,26.4,21.0,30.71,South,191,2.0,4.0,80,0.00,,,0.00,meteohub,2013-02-14 08:22:00,
2013-02-14 00:27:00,26.4,21.4,30.71,South,190,2.0,4.0,81,0.00,,,0.00,meteohub,2013-02-14 08:27:00,
2013-02-14 00:32:00,26.4,21.0,30.71,SSE,150,2.0,4.0,80,0.00,,,0.00,meteohub,2013-02-14 08:32:00,
2013-02-14 00:37:00,26.4,21.0,30.70,SSE,159,3.0,3.0,80,0.00,,,0.00,meteohub,2013-02-14 08:37:00,
2013-02-14 00:42:00,26.4,21.0,30.70,South,172,2.0,4.0,80,0.00,,,0.00,meteohub,2013-02-14 08:42:00,
2013-02-14 00:47:00,26.4,21.0,30.70,South,169,2.0,4.0,80,0.00,,,0.00,meteohub,2013-02-14 08:47:00,
2013-02-14 00:52:00,26.6,21.2,30.70,SSE,164,1.0,4.0,80,0.00,,,0.00,meteohub,2013-02-14 08:52:00,
2013-02-14 00:57:00,26.8,21.4,30.71,South,176,1.0,3.0,80,0.00,,,0.00,meteohub,2013-02-14 08:57:00,
2013-02-14 01:02:00,26.6,21.2,30.71,South,170,0.0,3.0,80,0.00,,,0.00,meteohub,2013-02-14 09:02:00,
2013-02-14 01:07:00,26.4,21.0,30.70,SSE,166,0.0,3.0,80,0.00,,,0.00,meteohub,2013-02-14 09:07:00,
2013-02-14 01:12:00,26.2,20.8,30.70,SSE,164,1.0,3.0,80,0.00,,,0.00,meteohub,2013-02-14 09:12:00,
2013-02-14 01:17:00,26.2,20.8,30.71,SSE,153,2.0,3.0,80,0.00,,,0.00,meteohub,2013-02-14 09:17:00,
2013-02-14 01:22:00,26.1,20.7,30.71,South,173,1.0,3.0,80,0.00,,,0.00,meteohub,2013-02-14 09:22:00,
2013-02-14 01:27:00,26.1,20.7,30.71,South,175,1.0,3.0,80,0.00,,,0.00,meteohub,2013-02-14 09:27:00,
2013-02-14 01:32:00,26.1,20.7,30.71,South,169,2.0,3.0,80,0.00,,,0.00,meteohub,2013-02-14 09:32:00,
2013-02-14 01:37:00,25.9,20.5,30.71,South,172,2.0,3.0,80,0.00,,,0.00,meteohub,2013-02-14 09:37:00,
2013-02-14 01:42:00,25.9,20.8,30.71,SSE,165,1.0,2.0,81,0.00,,,0.00,meteohub,2013-02-14 09:42:00,
2013-02-14 01:47:00,25.9,20.5,30.71,South,175,2.0,3.0,80,0.00,,,0.00,meteohub,2013-02-14 09:47:00,
2013-02-14 01:52:00,25.9,20.5,30.71,SSE,157,3.0,4.0,80,0.00,,,0.00,meteohub,2013-02-14 09:52:00,
2013-02-14 01:57:00,25.7,20.7,30.71,SSE,164,2.0,4.0,81,0.00,,,0.00,meteohub,2013-02-14 09:57:00,
2013-02-14 02:02:00,25.7,20.7,30.71,SSE,168,3.0,4.0,81,0.00,,,0.00,meteohub,2013-02-14 10:02:00,
2013-02-14 02:07:00,25.7,20.7,30.71,SSE,167,2.0,3.0,81,0.00,,,0.00,meteohub,2013-02-14 10:07:00,
2013-02-14 02:12:00,25.7,20.7,30.71,SSE,163,3.0,4.0,81,0.00,,,0.00,meteohub,2013-02-14 10:12:00,
2013-02-14 02:17:00,25.7,20.7,30.71,South,182,3.0,4.0,81,0.00,,,0.00,meteohub,2013-02-14 10:17:00,
2013-02-14 02:22:00,25.9,20.8,30.71,South,169,2.0,4.0,81,0.00,,,0.00,meteohub,2013-02-14 10:22:00,
2013-02-14 02:27:00,25.7,20.7,30.71,South,188,3.0,4.0,81,0.00,,,0.00,meteohub,2013-02-14 10:27:00,
2013-02-14 02:32:00,25.5,20.5,30.71,South,175,2.0,4.0,81,0.00,,,0.00,meteohub,2013-02-14 10:32:00,
2013-02-14 02:37:00,25.3,20.7,30.71,SSE,161,3.0,4.0,82,0.00,,,0.00,meteohub,2013-02-14 10:37:00,
2013-02-14 02:42:00,25.3,20.7,30.71,South,190,3.0,4.0,82,0.00,,,0.00,meteohub,2013-02-14 10:42:00,
2013-02-14 02:47:00,25.5,20.5,30.71,South,186,3.0,5.0,81,0.00,,,0.00,meteohub,2013-02-14 10:47:00,
2013-02-14 02:52:00,25.5,20.5,30.71,SSE,159,2.0,5.0,81,0.00,,,0.00,meteohub,2013-02-14 10:52:00,
2013-02-14 02:57:00,25.3,20.7,30.71,SSE,156,2.0,4.0,82,0.00,,,0.00,meteohub,2013-02-14 10:57:00,
2013-02-14 03:02:00,25.2,20.5,30.71,South,186,1.0,4.0,82,0.00,,,0.00,meteohub,2013-02-14 11:02:00,
2013-02-14 03:07:00,25.2,20.5,30.71,South,191,2.0,4.0,82,0.00,,,0.00,meteohub,2013-02-14 11:07:00,
2013-02-14 03:12:00,25.2,20.5,30.71,SSW,210,0.0,3.0,82,0.00,,,0.00,meteohub,2013-02-14 11:12:00,
2013-02-14 03:17:00,25.0,20.5,30.71,SSE,164,2.0,3.0,83,0.00,,,0.00,meteohub,2013-02-14 11:17:00,
2013-02-14 03:22:00,24.8,20.3,30.71,South,171,2.0,3.0,83,0.00,,,0.00,meteohub,2013-02-14 11:22:00,
2013-02-14 03:27:00,24.8,20.3,30.71,South,176,2.0,3.0,83,0.00,,,0.00,meteohub,2013-02-14 11:27:00,
2013-02-14 03:32:00,24.8,20.3,30.71,SSE,167,1.0,3.0,83,0.00,,,0.00,meteohub,2013-02-14 11:32:00,
2013-02-14 03:37:00,25.0,20.5,30.71,South,187,3.0,4.0,83,0.00,,,0.00,meteohub,2013-02-14 11:37:00,
2013-02-14 03:42:00,25.0,20.5,30.71,SSE,159,3.0,4.0,83,0.00,,,0.00,meteohub,2013-02-14 11:42:00,
2013-02-14 03:47:00,25.3,20.7,30.72,South,176,3.0,4.0,82,0.00,,,0.00,meteohub,2013-02-14 11:47:00,
2013-02-14 03:52:00,25.7,21.0,30.71,SSE,166,2.0,6.0,82,0.00,,,0.00,meteohub,2013-02-14 11:52:00,
2013-02-14 03:57:00,25.9,21.2,30.71,South,187,2.0,6.0,82,0.00,,,0.00,meteohub,2013-02-14 11:57:00,
2013-02-14 04:02:00,26.1,21.0,30.71,SSE,160,3.0,6.0,81,0.00,,,0.00,meteohub,2013-02-14 12:02:00,
2013-02-14 04:07:00,25.5,20.5,30.71,SSE,161,3.0,4.0,81,0.00,,,0.00,meteohub,2013-02-14 12:07:00,
2013-02-14 04:12:00,25.3,20.7,30.71,South,180,3.0,5.0,82,0.00,,,0.00,meteohub,2013-02-14 12:12:00,
2013-02-14 04:17:00,25.5,20.8,30.71,SSE,160,3.0,5.0,82,0.00,,,0.00,meteohub,2013-02-14 12:17:00,
2013-02-14 04:22:00,25.3,20.7,30.71,South,174,2.0,5.0,82,0.00,,,0.00,meteohub,2013-02-14 12:22:00,
2013-02-14 04:27:00,25.5,20.8,30.71,South,183,2.0,5.0,82,0.00,,,0.00,meteohub,2013-02-14 12:27:00,
2013-02-14 04:32:00,25.3,20.7,30.71,South,179,3.0,5.0,82,0.00,,,0.00,meteohub,2013-02-14 12:32:00,
2013-02-14 04:37:00,25.2,20.5,30.71,South,171,3.0,4.0,82,0.00,,,0.00,meteohub,2013-02-14 12:37:00,
2013-02-14 04:42:00,25.2,20.5,30.71,SSW,202,3.0,5.0,82,0.00,,,0.00,meteohub,2013-02-14 12:42:00,
2013-02-14 04:47:00,25.0,20.3,30.71,South,169,4.0,5.0,82,0.00,,,0.00,meteohub,2013-02-14 12:47:00,
2013-02-14 04:52:00,24.8,20.3,30.71,South,175,3.0,5.0,83,0.00,,,0.00,meteohub,2013-02-14 12:52:00,
2013-02-14 04:57:00,24.6,20.1,30.71,South,172,2.0,4.0,83,0.00,,,0.00,meteohub,2013-02-14 12:57:00,
2013-02-14 05:02:00,24.6,20.1,30.71,SSE,161,4.0,4.0,83,0.00,,,0.00,meteohub,2013-02-14 13:02:00,
2013-02-14 05:07:00,24.6,20.1,30.71,SSE,167,2.0,5.0,83,0.00,,,0.00,meteohub,2013-02-14 13:07:00,
2013-02-14 05:12:00,24.6,20.1,30.71,SSW,199,1.0,5.0,83,0.00,,,0.00,meteohub,2013-02-14 13:12:00,
2013-02-14 05:17:00,24.6,20.1,30.71,South,169,3.0,5.0,83,0.00,,,0.00,meteohub,2013-02-14 13:17:00,
2013-02-14 05:22:00,24.4,19.9,30.71,South,184,3.0,4.0,83,0.00,,,0.00,meteohub,2013-02-14 13:22:00,
2013-02-14 05:27:00,24.4,20.3,30.71,SSE,157,2.0,4.0,84,0.00,,,0.00,meteohub,2013-02-14 13:27:00,
2013-02-14 05:32:00,24.3,20.1,30.71,SSE,168,3.0,4.0,84,0.00,,,0.00,meteohub,2013-02-14 13:32:00,
2013-02-14 05:37:00,24.3,19.8,30.71,SSE,165,2.0,4.0,83,0.00,,,0.00,meteohub,2013-02-14 13:37:00,
2013-02-14 05:42:00,24.1,19.9,30.71,SSW,213,3.0,3.0,84,0.00,,,0.00,meteohub,2013-02-14 13:42:00,
2013-02-14 05:47:00,23.9,19.8,30.71,SSE,160,2.0,4.0,84,0.00,,,0.00,meteohub,2013-02-14 13:47:00,
2013-02-14 05:52:00,24.1,20.3,30.71,SSE,163,4.0,6.0,85,0.00,,,0.00,meteohub,2013-02-14 13:52:00,
2013-02-14 05:57:00,24.4,20.3,30.71,South,173,3.0,6.0,84,0.00,,,0.00,meteohub,2013-02-14 13:57:00,
2013-02-14 06:02:00,24.3,20.1,30.71,South,169,3.0,6.0,84,0.00,,,0.00,meteohub,2013-02-14 14:02:00,
2013-02-14 06:07:00,24.1,19.9,30.72,SSE,168,3.0,5.0,84,0.00,,,0.00,meteohub,2013-02-14 14:07:00,
2013-02-14 06:12:00,23.7,19.9,30.72,South,180,3.0,5.0,85,0.00,,,0.00,meteohub,2013-02-14 14:12:00,
2013-02-14 06:17:00,23.7,19.9,30.72,SSE,163,2.0,5.0,85,0.00,,,0.00,meteohub,2013-02-14 14:17:00,
2013-02-14 06:22:00,23.9,20.1,30.72,South,178,2.0,4.0,85,0.00,,,0.00,meteohub,2013-02-14 14:22:00,
2013-02-14 06:27:00,23.9,20.1,30.73,South,190,2.0,3.0,85,0.00,,,0.00,meteohub,2013-02-14 14:27:00,
2013-02-14 06:32:00,23.7,20.1,30.73,SSE,168,1.0,4.0,86,0.00,,,0.00,meteohub,2013-02-14 14:32:00,
2013-02-14 06:37:00,23.7,20.1,30.73,South,173,2.0,4.0,86,0.00,,,0.00,meteohub,2013-02-14 14:37:00,
2013-02-14 06:42:00,23.9,20.3,30.74,SSE,159,2.0,3.0,86,0.00,,,0.00,meteohub,2013-02-14 14:42:00,
2013-02-14 06:47:00,23.9,20.3,30.74,SSE,167,2.0,3.0,86,0.00,,,0.00,meteohub,2013-02-14 14:47:00,
2013-02-14 06:52:00,23.9,20.1,30.74,South,173,2.0,3.0,85,0.00,,,0.00,meteohub,2013-02-14 14:52:00,
2013-02-14 06:57:00,23.9,20.3,30.74,SSE,167,3.0,3.0,86,0.00,,,0.00,meteohub,2013-02-14 14:57:00,
2013-02-14 07:02:00,23.9,20.3,30.74,SSE,163,2.0,4.0,86,0.00,,,0.00,meteohub,2013-02-14 15:02:00,
2013-02-14 07:07:00,24.3,20.5,30.74,SSE,155,2.0,4.0,85,0.00,,,0.00,meteohub,2013-02-14 15:07:00,
2013-02-14 07:12:00,24.3,20.5,30.74,SSE,164,1.0,4.0,85,0.00,,,0.00,meteohub,2013-02-14 15:12:00,
2013-02-14 07:17:00,24.4,20.7,30.75,South,175,2.0,4.0,85,0.00,,,0.00,meteohub,2013-02-14 15:17:00,
2013-02-14 07:22:00,24.6,21.0,30.75,South,171,2.0,4.0,86,0.00,,,0.00,meteohub,2013-02-14 15:22:00,
2013-02-14 07:27:00,24.8,21.0,30.75,SSW,195,2.0,4.0,85,0.00,,,0.00,meteohub,2013-02-14 15:27:00,
2013-02-14 07:32:00,25.0,21.2,30.76,South,172,3.0,4.0,85,0.00,,,0.00,meteohub,2013-02-14 15:32:00,
2013-02-14 07:37:00,25.0,21.2,30.76,South,191,1.0,4.0,85,0.00,,,0.00,meteohub,2013-02-14 15:37:00,
2013-02-14 07:42:00,25.2,21.0,30.76,South,182,3.0,4.0,84,0.00,,,0.00,meteohub,2013-02-14 15:42:00,
2013-02-14 07:47:00,25.3,21.2,30.76,South,170,4.0,4.0,84,0.00,,,0.00,meteohub,2013-02-14 15:47:00,
2013-02-14 07:52:00,25.3,21.2,30.76,SSW,194,1.0,4.0,84,0.00,,,0.00,meteohub,2013-02-14 15:52:00,
2013-02-14 07:57:00,25.5,21.4,30.76,SSE,156,1.0,4.0,84,0.00,,,0.00,meteohub,2013-02-14 15:57:00,
2013-02-14 08:02:00,25.9,21.7,30.76,East,92,1.0,4.0,84,0.00,,,0.00,meteohub,2013-02-14 16:02:00,
2013-02-14 08:07:00,26.6,21.9,30.77,SSE,166,1.0,3.0,82,0.00,,,0.00,meteohub,2013-02-14 16:07:00,
2013-02-14 08:12:00,27.0,22.3,30.77,SW,217,1.0,3.0,82,0.00,,,0.00,meteohub,2013-02-14 16:12:00,
2013-02-14 08:17:00,27.9,22.8,30.77,ESE,119,1.0,4.0,81,0.00,,,0.00,meteohub,2013-02-14 16:17:00,
2013-02-14 08:22:00,28.6,22.8,30.77,South,171,2.0,4.0,79,0.00,,,0.00,meteohub,2013-02-14 16:22:00,
2013-02-14 08:27:00,28.6,23.2,30.77,SSW,203,0.0,4.0,80,0.00,,,0.00,meteohub,2013-02-14 16:27:00,
2013-02-14 08:32:00,28.9,23.2,30.77,South,186,1.0,4.0,79,0.00,,,0.00,meteohub,2013-02-14 16:32:00,
2013-02-14 08:37:00,29.3,23.5,30.77,SSW,205,0.0,4.0,79,0.00,,,0.00,meteohub,2013-02-14 16:37:00,
2013-02-14 08:42:00,29.8,23.9,30.77,South,171,2.0,2.0,78,0.00,,,0.00,meteohub,2013-02-14 16:42:00,
2013-02-14 08:47:00,30.6,23.9,30.77,East,94,0.0,2.0,76,0.00,,,0.00,meteohub,2013-02-14 16:47:00,
2013-02-14 08:52:00,31.3,24.3,30.77,South,180,2.0,2.0,75,0.00,,,0.00,meteohub,2013-02-14 16:52:00,
2013-02-14 08:57:00,31.6,24.6,30.77,SSW,199,0.0,3.0,75,0.00,,,0.00,meteohub,2013-02-14 16:57:00,
2013-02-14 09:02:00,32.2,24.8,30.77,South,181,0.0,4.0,74,0.00,,,0.00,meteohub,2013-02-14 17:02:00,
2013-02-14 09:07:00,33.3,25.2,30.76,NW,317,3.0,4.0,72,0.00,,,0.00,meteohub,2013-02-14 17:07:00,
2013-02-14 09:12:00,34.2,25.0,30.77,NE,36,3.0,3.0,69,0.00,,,0.00,meteohub,2013-02-14 17:12:00,
2013-02-14 09:17:00,34.9,25.3,30.76,WNW,300,0.0,3.0,68,0.00,,,0.00,meteohub,2013-02-14 17:17:00,
2013-02-14 09:22:00,35.2,25.3,30.76,NE,37,0.0,3.0,67,0.00,,,0.00,meteohub,2013-02-14 17:22:00,
2013-02-14 09:27:00,35.8,25.9,30.77,NE,38,0.0,4.0,67,0.00,,,0.00,meteohub,2013-02-14 17:27:00,
2013-02-14 09:32:00,36.0,26.1,30.77,East,80,0.0,4.0,67,0.00,,,0.00,meteohub,2013-02-14 17:32:00,
2013-02-14 09:37:00,36.3,25.7,30.76,ENE,78,0.0,4.0,65,0.00,,,0.00,meteohub,2013-02-14 17:37:00,
2013-02-14 09:42:00,37.0,26.4,30.77,NE,44,5.0,5.0,65,0.00,,,0.00,meteohub,2013-02-14 17:42:00,
2013-02-14 09:47:00,37.0,26.8,30.77,NNE,33,7.0,7.0,66,0.00,,,0.00,meteohub,2013-02-14 17:47:00,
2013-02-14 09:52:00,37.2,26.6,30.76,NE,34,3.0,8.0,65,0.00,,,0.00,meteohub,2013-02-14 17:52:00,
2013-02-14 09:57:00,37.9,27.1,30.76,NE,35,8.0,8.0,65,0.00,,,0.00,meteohub,2013-02-14 17:57:00,
2013-02-14 10:02:00,38.1,27.3,30.76,NNE,33,5.0,8.0,65,0.00,,,0.00,meteohub,2013-02-14 18:02:00,
2013-02-14 10:07:00,38.5,26.2,30.76,NE,44,3.0,8.0,61,0.00,,,0.00,meteohub,2013-02-14 18:07:00,
2013-02-14 10:12:00,38.7,26.8,30.76,NNE,28,4.0,10.0,62,0.00,,,0.00,meteohub,2013-02-14 18:12:00,
2013-02-14 10:17:00,38.8,27.0,30.76,NNE,32,7.0,10.0,62,0.00,,,0.00,meteohub,2013-02-14 18:17:00,
2013-02-14 10:22:00,39.2,27.0,30.76,NE,40,4.0,10.0,61,0.00,,,0.00,meteohub,2013-02-14 18:22:00,
2013-02-14 10:27:00,39.4,27.9,30.76,NNE,31,6.0,9.0,63,0.00,,,0.00,meteohub,2013-02-14 18:27:00,
2013-02-14 10:32:00,39.6,27.7,30.76,NNE,32,9.0,11.0,62,0.00,,,0.00,meteohub,2013-02-14 18:32:00,
2013-02-14 10:37:00,39.6,27.7,30.77,NE,53,11.0,15.0,62,0.00,,,0.00,meteohub,2013-02-14 18:37:00,
2013-02-14 10:42:00,39.7,26.6,30.76,NE,49,8.0,15.0,59,0.00,,,0.00,meteohub,2013-02-14 18:42:00,
2013-02-14 10:47:00,39.7,27.9,30.76,NNE,33,13.0,15.0,62,0.00,,,0.00,meteohub,2013-02-14 18:47:00,
2013-02-14 10:52:00,39.7,27.3,30.76,NNE,20,10.0,14.0,61,0.00,,,0.00,meteohub,2013-02-14 18:52:00,
2013-02-14 10:57:00,39.4,28.2,30.76,NNE,30,10.0,16.0,64,0.00,,,0.00,meteohub,2013-02-14 18:57:00,
2013-02-14 11:02:00,39.2,28.4,30.76,NE,38,13.0,16.0,65,0.00,,,0.00,meteohub,2013-02-14 19:02:00,
2013-02-14 11:07:00,39.0,27.1,30.75,NE,46,15.0,20.0,62,0.00,,,0.00,meteohub,2013-02-14 19:07:00,
2013-02-14 11:12:00,39.0,27.9,30.75,NE,35,13.0,20.0,64,0.00,,,0.00,meteohub,2013-02-14 19:12:00,
2013-02-14 11:17:00,39.2,28.4,30.75,NE,34,11.0,18.0,65,0.00,,,0.00,meteohub,2013-02-14 19:17:00,
2013-02-14 11:22:00,39.4,28.6,30.75,NE,35,13.0,17.0,65,0.00,,,0.00,meteohub,2013-02-14 19:22:00,
2013-02-14 11:27:00,39.6,28.8,30.74,NNE,26,12.0,17.0,65,0.00,,,0.00,meteohub,2013-02-14 19:27:00,
2013-02-14 11:32:00,39.7,28.9,30.74,NE,53,9.0,16.0,65,0.00,,,0.00,meteohub,2013-02-14 19:32:00,
2013-02-14 11:37:00,39.9,29.1,30.73,NNE,31,9.0,16.0,65,0.00,,,0.00,meteohub,2013-02-14 19:37:00,
2013-02-14 11:42:00,40.5,27.7,30.73,NNE,32,15.0,16.0,60,0.00,,,0.00,meteohub,2013-02-14 19:42:00,
2013-02-14 11:47:00,40.6,29.5,30.74,ENE,64,5.0,17.0,64,0.00,,,0.00,meteohub,2013-02-14 19:47:00,
2013-02-14 11:52:00,41.2,29.5,30.73,NNE,32,9.0,17.0,63,0.00,,,0.00,meteohub,2013-02-14 19:52:00,
2013-02-14 11:57:00,41.5,30.2,30.72,NE,39,8.0,16.0,64,0.00,,,0.00,meteohub,2013-02-14 19:57:00,
2013-02-14 12:02:00,41.7,29.7,30.72,NNE,32,15.0,15.0,62,0.00,,,0.00,meteohub,2013-02-14 20:02:00,
2013-02-14 12:07:00,41.7,28.0,30.71,NE,39,10.0,16.0,58,0.00,,,0.00,meteohub,2013-02-14 20:07:00,
2013-02-14 12:12:00,41.9,29.5,30.71,NE,35,14.0,16.0,61,0.00,,,0.00,meteohub,2013-02-14 20:12:00,
2013-02-14 12:17:00,41.7,28.9,30.71,NE,35,15.0,17.0,60,0.00,,,0.00,meteohub,2013-02-14 20:17:00,
2013-02-14 12:22:00,41.5,29.1,30.71,NNE,29,17.0,19.0,61,0.00,,,0.00,meteohub,2013-02-14 20:22:00,
2013-02-14 12:27:00,41.5,30.7,30.71,NNE,30,10.0,19.0,65,0.00,,,0.00,meteohub,2013-02-14 20:27:00,
2013-02-14 12:32:00,42.1,27.9,30.71,NE,38,11.0,19.0,57,0.00,,,0.00,meteohub,2013-02-14 20:32:00,
2013-02-14 12:37:00,42.3,30.2,30.70,NE,40,19.0,21.0,62,0.00,,,0.00,meteohub,2013-02-14 20:37:00,
2013-02-14 12:42:00,42.1,27.5,30.70,NE,38,17.0,21.0,56,0.00,,,0.00,meteohub,2013-02-14 20:42:00,
2013-02-14 12:47:00,41.9,29.5,30.70,NE,38,21.0,21.0,61,0.00,,,0.00,meteohub,2013-02-14 20:47:00,
2013-02-14 12:52:00,41.7,30.0,30.70,NE,35,15.0,22.0,63,0.00,,,0.00,meteohub,2013-02-14 20:52:00,
2013-02-14 12:57:00,41.9,30.2,30.70,NNE,32,17.0,22.0,63,0.00,,,0.00,meteohub,2013-02-14 20:57:00,
2013-02-14 13:02:00,41.9,28.6,30.70,NE,34,17.0,22.0,59,0.00,,,0.00,meteohub,2013-02-14 21:02:00,
2013-02-14 13:07:00,42.1,28.8,30.69,NNE,32,17.0,23.0,59,0.00,,,0.00,meteohub,2013-02-14 21:07:00,
2013-02-14 13:12:00,42.3,28.9,30.69,NE,42,15.0,23.0,59,0.00,,,0.00,meteohub,2013-02-14 21:12:00,
2013-02-14 13:17:00,42.3,28.9,30.69,NNE,22,21.0,25.0,59,0.00,,,0.00,meteohub,2013-02-14 21:17:00,
2013-02-14 13:22:00,42.3,28.9,30.69,NE,40,21.0,25.0,59,0.00,,,0.00,meteohub,2013-02-14 21:22:00,
2013-02-14 13:27:00,42.1,29.1,30.69,ENE,60,19.0,25.0,60,0.00,,,0.00,meteohub,2013-02-14 21:27:00,
2013-02-14 13:32:00,42.3,29.3,30.69,NNE,28,19.0,25.0,60,0.00,,,0.00,meteohub,2013-02-14 21:32:00,
2013-02-14 13:37:00,42.4,29.1,30.69,ENE,61,18.0,24.0,59,0.00,,,0.00,meteohub,2013-02-14 21:37:00,
2013-02-14 13:42:00,42.4,28.8,30.69,NNE,30,15.0,22.0,58,0.00,,,0.00,meteohub,2013-02-14 21:42:00,
2013-02-14 13:47:00,42.4,29.5,30.69,NE,35,18.0,23.0,60,0.00,,,0.00,meteohub,2013-02-14 21:47:00,
2013-02-14 13:52:00,42.4,28.8,30.69,NE,38,15.0,23.0,58,0.00,,,0.00,meteohub,2013-02-14 21:52:00,
2013-02-14 13:57:00,42.8,29.8,30.69,NE,40,15.0,22.0,60,0.00,,,0.00,meteohub,2013-02-14 21:57:00,
2013-02-14 14:02:00,42.8,28.6,30.69,NE,35,16.0,22.0,57,0.00,,,0.00,meteohub,2013-02-14 22:02:00,
2013-02-14 14:07:00,43.0,29.3,30.68,NE,53,16.0,22.0,58,0.00,,,0.00,meteohub,2013-02-14 22:07:00,
2013-02-14 14:12:00,42.8,28.6,30.68,NNE,27,12.0,25.0,57,0.00,,,0.00,meteohub,2013-02-14 22:12:00,
2013-02-14 14:17:00,42.6,29.3,30.68,NE,55,22.0,26.0,59,0.00,,,0.00,meteohub,2013-02-14 22:17:00,
2013-02-14 14:22:00,42.4,29.1,30.68,NNE,31,18.0,26.0,59,0.00,,,0.00,meteohub,2013-02-14 22:22:00,
2013-02-14 14:27:00,42.4,30.4,30.68,NE,38,20.0,26.0,62,0.00,,,0.00,meteohub,2013-02-14 22:27:00,
2013-02-14 14:32:00,42.6,29.7,30.69,ENE,65,17.0,26.0,60,0.00,,,0.00,meteohub,2013-02-14 22:32:00,
2013-02-14 14:37:00,42.6,30.2,30.69,NE,42,24.0,26.0,61,0.00,,,0.00,meteohub,2013-02-14 22:37:00,
2013-02-14 14:42:00,42.8,29.8,30.69,NE,36,15.0,26.0,60,0.00,,,0.00,meteohub,2013-02-14 22:42:00,
2013-02-14 14:47:00,42.6,29.3,30.69,NNE,30,15.0,25.0,59,0.00,,,0.00,meteohub,2013-02-14 22:47:00,
2013-02-14 14:52:00,43.0,31.3,30.69,ENE,59,14.0,25.0,63,0.00,,,0.00,meteohub,2013-02-14 22:52:00,
2013-02-14 14:57:00,43.0,30.4,30.69,NE,51,11.0,25.0,61,0.00,,,0.00,meteohub,2013-02-14 22:57:00,
2013-02-14 15:02:00,43.0,28.4,30.69,East,82,15.0,25.0,56,0.00,,,0.00,meteohub,2013-02-14 23:02:00,
2013-02-14 15:07:00,43.0,29.3,30.69,NE,35,7.0,22.0,58,0.00,,,0.00,meteohub,2013-02-14 23:07:00,
2013-02-14 15:12:00,42.8,29.5,30.69,NE,42,15.0,23.0,59,0.00,,,0.00,meteohub,2013-02-14 23:12:00,
2013-02-14 15:17:00,43.0,30.0,30.69,NNE,32,14.0,23.0,60,0.00,,,0.00,meteohub,2013-02-14 23:17:00,
2013-02-14 15:22:00,43.0,29.3,30.69,ENE,78,14.0,23.0,58,0.00,,,0.00,meteohub,2013-02-14 23:22:00,
2013-02-14 15:27:00,43.0,30.9,30.69,NE,55,14.0,23.0,62,0.00,,,0.00,meteohub,2013-02-14 23:27:00,
2013-02-14 15:32:00,43.3,25.0,30.69,East,85,11.0,23.0,48,0.00,,,0.00,meteohub,2013-02-14 23:32:00,
2013-02-14 15:37:00,43.2,30.2,30.69,NE,39,13.0,24.0,60,0.00,,,0.00,meteohub,2013-02-14 23:37:00,
2013-02-14 15:42:00,43.0,30.0,30.69,NE,49,14.0,25.0,60,0.00,,,0.00,meteohub,2013-02-14 23:42:00,
2013-02-14 15:47:00,42.8,28.6,30.69,NNE,31,13.0,25.0,57,0.00,,,0.00,meteohub,2013-02-14 23:47:00,
2013-02-14 15:52:00,43.0,27.9,30.69,NE,36,16.0,23.0,55,0.00,,,0.00,meteohub,2013-02-14 23:52:00,
2013-02-14 15:57:00,43.0,30.9,30.69,NE,50,6.0,23.0,62,0.00,,,0.00,meteohub,2013-02-14 23:57:00,
2013-02-14 16:02:00,42.8,29.8,30.69,NE,38,16.0,21.0,60,0.00,,,0.00,meteohub,2013-02-15 00:02:00,
2013-02-14 16:07:00,42.6,28.9,30.69,ENE,71,5.0,22.0,58,0.00,,,0.00,meteohub,2013-02-15 00:07:00,
2013-02-14 16:12:00,42.6,28.9,30.69,NE,42,12.0,22.0,58,0.00,,,0.00,meteohub,2013-02-15 00:12:00,
2013-02-14 16:17:00,42.4,30.0,30.69,NE,40,16.0,22.0,61,0.00,,,0.00,meteohub,2013-02-15 00:17:00,
2013-02-14 16:22:00,42.4,28.8,30.69,NE,35,10.0,22.0,58,0.00,,,0.00,meteohub,2013-02-15 00:22:00,
2013-02-14 16:27:00,42.4,29.5,30.69,NE,36,17.0,22.0,60,0.00,,,0.00,meteohub,2013-02-15 00:27:00,
2013-02-14 16:32:00,42.3,29.3,30.69,NE,39,23.0,24.0,60,0.00,,,0.00,meteohub,2013-02-15 00:32:00,
2013-02-14 16:37:00,42.1,29.1,30.70,NNW,344,17.0,27.0,60,0.00,,,0.00,meteohub,2013-02-15 00:37:00,
2013-02-14 16:42:00,42.1,29.7,30.69,NE,36,18.0,27.0,61,0.00,,,0.00,meteohub,2013-02-15 00:42:00,
2013-02-14 16:47:00,41.9,28.9,30.69,NE,34,17.0,27.0,60,0.00,,,0.00,meteohub,2013-02-15 00:47:00,
2013-02-14 16:52:00,41.7,29.3,30.69,ENE,71,12.0,27.0,61,0.00,,,0.00,meteohub,2013-02-15 00:52:00,
2013-02-14 16:57:00,41.7,30.0,30.69,NE,56,22.0,24.0,63,0.00,,,0.00,meteohub,2013-02-15 00:57:00,
2013-02-14 17:02:00,41.7,28.9,30.69,North,11,7.0,24.0,60,0.00,,,0.00,meteohub,2013-02-15 01:02:00,
2013-02-14 17:07:00,41.5,28.2,30.69,East,80,6.0,24.0,59,0.00,,,0.00,meteohub,2013-02-15 01:07:00,
2013-02-14 17:12:00,41.5,28.8,30.70,East,80,2.0,23.0,60,0.00,,,0.00,meteohub,2013-02-15 01:12:00,
2013-02-14 17:17:00,41.7,28.0,30.70,East,82,3.0,21.0,58,0.00,,,0.00,meteohub,2013-02-15 01:17:00,
2013-02-14 17:22:00,41.5,28.2,30.70,NE,47,9.0,20.0,59,0.00,,,0.00,meteohub,2013-02-15 01:22:00,
2013-02-14 17:28:00,41.5,28.8,30.70,NE,50,12.0,21.0,60,0.00,,,0.00,meteohub,2013-02-15 01:28:00,
2013-02-14 17:33:00,41.4,27.3,30.70,ENE,77,4.0,23.0,57,0.00,,,0.00,meteohub,2013-02-15 01:33:00,
2013-02-14 17:38:00,41.2,27.5,30.70,ENE,66,21.0,23.0,58,0.00,,,0.00,meteohub,2013-02-15 01:38:00,
2013-02-14 17:43:00,40.8,28.4,30.70,ENE,76,11.0,27.0,61,0.00,,,0.00,meteohub,2013-02-15 01:43:00,
2013-02-14 17:48:00,40.6,28.6,30.70,ENE,57,20.0,27.0,62,0.00,,,0.00,meteohub,2013-02-15 01:48:00,
2013-02-14 17:53:00,40.5,28.0,30.70,ENE,67,19.0,27.0,61,0.00,,,0.00,meteohub,2013-02-15 01:53:00,
2013-02-14 17:58:00,40.5,28.0,30.70,ENE,67,16.0,26.0,61,0.00,,,0.00,meteohub,2013-02-15 01:58:00,
2013-02-14 18:03:00,40.5,27.3,30.71,ENE,71,5.0,27.0,59,0.00,,,0.00,meteohub,2013-02-15 02:03:00,